This is the latest recevied weather packets stored in our database for station/object K4CRS-13. If no packets are shown the sender has not sent any weather packets the latest 1 day(s).
| Time | Temp. | Humidity | Pressure | Rain* | Wind** | Luminosity | Snow |
|---|---|---|---|---|---|---|---|
| 1778028031 | 20.56° C | 78% | 1045 hPa | 0 mm | 0.89 m/s, 181° | 1 W/m² | - |
| 1778027728 | 20.56° C | 78% | 1044.9 hPa | 0 mm | 1.34 m/s, 167° | 3 W/m² | - |
| 1778027424 | 20.56° C | 77% | 1045.1 hPa | 0 mm | 0.89 m/s, 175° | 6 W/m² | - |
| 1778027120 | 20.56° C | 77% | 1045.2 hPa | 0 mm | 0.89 m/s, 177° | 8 W/m² | - |
| 1778026815 | 20.56° C | 77% | 1045.2 hPa | 0 mm | 0.89 m/s, 183° | 7 W/m² | - |
| 1778026512 | 20.56° C | 77% | 1045.1 hPa | 0 mm | 0.89 m/s, 173° | 9 W/m² | - |
| 1778026209 | 20.56° C | 76% | 1045.1 hPa | 0 mm | 1.34 m/s, 184° | 10 W/m² | - |
| 1778025907 | 20.56° C | 76% | 1045.1 hPa | 0 mm | 0.45 m/s, 171° | 22 W/m² | - |
| 1778025604 | 20.56° C | 76% | 1045.3 hPa | 0 mm | 1.34 m/s, 184° | 25 W/m² | - |
| 1778025302 | 20.56° C | 76% | 1045.4 hPa | 0 mm | 0.89 m/s, 169° | 14 W/m² | - |
| 1778024998 | 21.11° C | 75% | 1045.3 hPa | 0 mm | 0.89 m/s, 180° | 20 W/m² | - |
| 1778024696 | 21.11° C | 75% | 1045.2 hPa | 0 mm | 0.89 m/s, 176° | 22 W/m² | - |
| 1778024392 | 21.11° C | 75% | 1045.3 hPa | 0 mm | 1.34 m/s, 188° | 22 W/m² | - |
| 1778024090 | 21.11° C | 74% | 1045.1 hPa | 0 mm | 0.89 m/s, 185° | 20 W/m² | - |
| 1778023787 | 21.11° C | 74% | 1045.3 hPa | 0 mm | 1.34 m/s, 191° | 25 W/m² | - |
| 1778023485 | 21.11° C | 74% | 1045.6 hPa | 0 mm | 1.34 m/s, 188° | 30 W/m² | - |
| 1778023182 | 21.11° C | 73% | 1045.5 hPa | 0 mm | 1.79 m/s, 185° | 56 W/m² | - |
| 1778022879 | 21.11° C | 73% | 1045.3 hPa | 0 mm | 1.79 m/s, 179° | 43 W/m² | - |
| 1778022577 | 21.11° C | 73% | 1045.2 hPa | 0 mm | 1.34 m/s, 191° | 25 W/m² | - |
| 1778022275 | 21.11° C | 74% | 1045.5 hPa | 0 mm | 0.89 m/s, 185° | 32 W/m² | - |
| 1778021971 | 21.11° C | 73% | 1045.6 hPa | 0 mm | 1.34 m/s, 188° | 41 W/m² | - |
| 1778021668 | 21.11° C | 73% | 1045.5 hPa | 0 mm | 1.34 m/s, 171° | 32 W/m² | - |
| 1778021363 | 21.11° C | 73% | 1045.7 hPa | 0 mm | 1.34 m/s, 186° | 44 W/m² | - |
| 1778021061 | 21.11° C | 73% | 1045.8 hPa | 0 mm | 0.89 m/s, 183° | 37 W/m² | - |
| 1778020758 | 21.11° C | 74% | 1045.8 hPa | 0 mm | 1.79 m/s, 165° | 34 W/m² | - |
* Rain latest hour (hover to see other rain measurements)
** Current wind speed in m/s (hover to see current wind gust speed)